Weather History for KTYQ - October, 2013

Change the Weather History Date:

Thursday, October 31, 2013

  Actual Average (KEYE) Record (KEYE)
Temperature  
Mean Temperature 59 °F 50 °F  
Max Temperature 63 °F 59 °F 77 °F (1999)
Min Temperature 53 °F 41 °F 30 °F (1996)
Degree Days  
Heating Degree Days 6 15  
Month to date heating degree days 330  
Since 1 July heating degree days 392  
Cooling Degree Days 0 0  
Month to date cooling degree days 15  
Year to date cooling degree days 1058  
Growing Degree Days 9 (Base 50)    
Moisture  
Dew Point 57 °F    
Average Humidity 87    
Maximum Humidity 90    
Minimum Humidity 81    
Precipitation  
Precipitation 2.59 in 0.09 in 2.24 in (2013)
Month to date precipitation 3.11  
Year to date precipitation 34.01  
Sea Level Pressure  
Sea Level Pressure 29.63 in    
Wind  
Wind Speed 11 mph (SSW)    
Max Wind Speed 28 mph    
Max Gust Speed 38 mph    
Visibility 6 miles    
Events Rain    
T = Trace of Precipitation, MM = Missing Value Source: NWS Daily Summary

Daily Weather History Graph

Daily Weather History Graph

Search for Another Location

Airport or City:

Trip Planner

Search our weather history database for the weather conditions in past years. The results will help you decide how hot, cold, wet, or windy it might be!

Date:

Astronomy

Oct. 31, 2013 Rise Set
Actual Time 8:13 AM EDT 6:43 PM EDT
Civil Twilight 7:45 AM EDT 7:11 PM EDT
Nautical Twilight 7:13 AM EDT 7:43 PM EDT
Astronomical Twilight 6:41 AM EDT 8:14 PM EDT
Moon 5:02 AM EDT (10/31) 5:01 PM EDT (10/31)
Length of Visible Light 11h 26m
Length of Day
10h 30m
Waning Crescent, 10% of the Moon is Illuminated
Oct 31
Waning Crescent
Nov 3
New
Nov 10
First Quarter
Nov 17
Full
Nov 25
Last Quarter

Hourly Weather History & Observations

Time (EDT) Temp. Dew Point Humidity Pressure Visibility Wind Dir Wind Speed Gust Speed Precip Events Conditions
12:15 AM 63.7 °F 60.3 °F 89% 29.96 in 4.0 mi South 8.1 mph - N/A Rain Rain
12:35 AM 64.2 °F 60.8 °F 89% 29.95 in 4.0 mi South 11.5 mph 19.6 mph N/A Rain Rain
12:55 AM 64.0 °F 60.4 °F 88% 29.94 in 3.0 mi SSW 9.2 mph - N/A Rain Heavy Rain
1:15 AM 63.7 °F 60.1 °F 88% 29.92 in 7.0 mi South 8.1 mph - N/A   Light Drizzle
1:35 AM 63.5 °F 59.9 °F 88% 29.93 in 7.0 mi South 6.9 mph - N/A   Scattered Clouds
1:55 AM 63.5 °F 60.1 °F 89% 29.92 in 5.0 mi South 8.1 mph - N/A   Mostly Cloudy
2:15 AM 63.5 °F 59.9 °F 88% 29.91 in 7.0 mi South 6.9 mph - N/A Rain Light Rain
2:35 AM 63.5 °F 59.9 °F 88% 29.91 in 7.0 mi South 6.9 mph - N/A   Light Drizzle
2:55 AM 63.1 °F 59.7 °F 89% 29.91 in 7.0 mi South 8.1 mph - N/A   Drizzle
3:15 AM 63.0 °F 59.4 °F 88% 29.90 in 7.0 mi South 5.8 mph - N/A   Drizzle
3:35 AM 62.8 °F 59.4 °F 89% 29.89 in 7.0 mi South 4.6 mph - N/A   Drizzle
3:55 AM 62.6 °F 59.0 °F 88% 29.87 in 7.0 mi South 5.8 mph - N/A   Drizzle
4:15 AM 62.4 °F 59.0 °F 89% 29.86 in 7.0 mi South 5.8 mph - N/A   Light Drizzle
4:35 AM 62.2 °F 59.0 °F 89% 29.86 in 7.0 mi South 6.9 mph - N/A   Drizzle
4:55 AM 62.2 °F 58.6 °F 88% 29.84 in 7.0 mi South 6.9 mph - N/A Rain Rain
5:15 AM 62.2 °F 58.5 °F 87% 29.83 in 7.0 mi South 9.2 mph - N/A   Drizzle
5:35 AM 62.2 °F 58.3 °F 87% 29.82 in 10.0 mi South 8.1 mph - N/A   Drizzle
5:55 AM 62.1 °F 58.1 °F 87% 29.82 in 10.0 mi South 9.2 mph - N/A   Light Drizzle
6:15 AM 62.1 °F 58.1 °F 87% 29.81 in 7.0 mi South 9.2 mph - N/A   Drizzle
6:35 AM 62.2 °F 57.9 °F 86% 29.81 in 7.0 mi SSW 12.7 mph 20.7 mph N/A   Drizzle
6:55 AM 61.7 °F 57.0 °F 85% 29.80 in 7.0 mi SSW 17.3 mph 23.0 mph N/A   Drizzle
7:15 AM 61.2 °F 56.1 °F 83% 29.79 in 10.0 mi South 12.7 mph 19.6 mph N/A   Light Drizzle
7:35 AM 61.0 °F 55.4 °F 82% 29.78 in 10.0 mi South 15.0 mph 19.6 mph N/A   Light Drizzle
7:55 AM 60.8 °F 54.9 °F 81% 29.77 in 10.0 mi South 13.8 mph 17.3 mph N/A   Drizzle
8:15 AM 60.4 °F 55.0 °F 82% 29.76 in 10.0 mi South 13.8 mph 19.6 mph N/A Rain Light Rain
8:35 AM 60.4 °F 55.8 °F 85% 29.76 in 7.0 mi South 12.7 mph 19.6 mph N/A   Drizzle
8:55 AM 60.8 °F 55.9 °F 84% 29.75 in 7.0 mi South 15.0 mph 23.0 mph N/A   Drizzle
9:15 AM 60.8 °F 56.3 °F 85% 29.75 in 7.0 mi South 12.7 mph 21.9 mph N/A   Drizzle
9:35 AM 60.8 °F 56.3 °F 85% 29.75 in 10.0 mi South 16.1 mph 21.9 mph N/A   Drizzle
9:55 AM 60.8 °F 56.3 °F 85% 29.74 in 7.0 mi South 13.8 mph 23.0 mph N/A   Drizzle
10:15 AM 61.0 °F 56.3 °F 85% 29.74 in 7.0 mi South 16.1 mph 24.2 mph N/A Rain Light Rain
10:35 AM 61.0 °F 56.5 °F 85% 29.73 in 7.0 mi South 13.8 mph 26.5 mph N/A Rain Rain
10:55 AM 60.8 °F 56.5 °F 86% 29.72 in 7.0 mi South 17.3 mph 24.2 mph N/A   Drizzle
11:15 AM 61.0 °F 56.5 °F 85% 29.71 in 7.0 mi South 12.7 mph 28.8 mph 0.01 in Rain Light Rain
11:35 AM 60.8 °F 56.5 °F 86% 29.71 in 5.0 mi SSW 15.0 mph 20.7 mph 0.01 in Rain Rain
11:55 AM 60.4 °F 56.3 °F 86% 29.70 in 4.0 mi South 12.7 mph 21.9 mph 0.01 in Rain Rain
12:15 PM 60.1 °F 56.3 °F 87% 29.69 in 4.0 mi South 15.0 mph - N/A Rain Rain
12:35 PM 59.9 °F 55.9 °F 87% 29.66 in 4.0 mi South 12.7 mph 20.7 mph N/A Rain Rain
12:55 PM 59.7 °F 55.9 °F 87% 29.65 in 4.0 mi South 12.7 mph 19.6 mph N/A Rain Rain
1:15 PM 59.5 °F 55.9 °F 88% 29.62 in 3.0 mi South 11.5 mph 21.9 mph 0.13 in Rain Rain
1:35 PM 59.4 °F 55.8 °F 88% 29.60 in 4.0 mi South 10.4 mph 17.3 mph 0.26 in Rain Rain
1:55 PM 59.4 °F 55.9 °F 88% 29.57 in 3.0 mi South 13.8 mph 21.9 mph 0.38 in Rain Heavy Rain
2:15 PM 59.5 °F 56.3 °F 89% 29.54 in 4.0 mi South 13.8 mph 19.6 mph 0.08 in Rain Rain
2:35 PM 59.7 °F 56.3 °F 88% 29.52 in 3.0 mi South 13.8 mph 20.7 mph 0.17 in Rain Heavy Rain
2:55 PM 59.5 °F 56.3 °F 89% 29.49 in 2.5 mi SSE 11.5 mph 20.7 mph 0.23 in Rain Rain
3:15 PM 59.9 °F 56.5 °F 88% 29.48 in 3.0 mi South 12.7 mph 20.7 mph 0.04 in Rain Rain
3:35 PM 60.4 °F 57.2 °F 89% 29.47 in 4.0 mi South 16.1 mph 20.7 mph 0.08 in Rain Heavy Rain
3:55 PM 61.0 °F 57.9 °F 90% 29.46 in 4.0 mi South 15.0 mph 20.7 mph 0.10 in   Drizzle
4:15 PM 61.7 °F 58.5 °F 89% 29.44 in 3.0 mi South 15.0 mph 21.9 mph 0.01 in Rain Rain
4:35 PM 61.9 °F 58.6 °F 89% 29.44 in 4.0 mi SSW 13.8 mph 18.4 mph 0.03 in Rain Heavy Rain
4:55 PM 62.6 °F 59.0 °F 88% 29.42 in 3.0 mi South 10.4 mph 19.6 mph 0.04 in Rain Heavy Rain
5:15 PM 62.6 °F 59.2 °F 89% 29.42 in 3.0 mi South 11.5 mph 17.3 mph 0.02 in Rain Heavy Rain
5:35 PM 62.6 °F 59.4 °F 89% 29.41 in 5.0 mi South 10.4 mph 16.1 mph 0.03 in Rain Rain
5:55 PM 62.6 °F 59.2 °F 89% 29.39 in 2.0 mi South 9.2 mph - 0.05 in Rain Heavy Rain
6:15 PM 62.6 °F 59.4 °F 89% 29.37 in 3.0 mi South 9.2 mph - 0.02 in Rain Rain
6:35 PM 63.3 °F 60.1 °F 89% 29.37 in 3.0 mi SSW 10.4 mph 19.6 mph 0.04 in Rain Heavy Rain
6:55 PM 62.6 °F 59.4 °F 89% 29.37 in 1.5 mi WSW 17.3 mph 25.3 mph 0.09 in Rain Heavy Rain
7:15 PM 61.7 °F 58.5 °F 89% 29.38 in 1.8 mi SW 13.8 mph 24.2 mph 0.05 in Rain Heavy Rain
7:35 PM 61.9 °F 58.6 °F 89% 29.37 in 5.0 mi SW 13.8 mph 17.3 mph 0.14 in Rain Rain
7:55 PM 62.2 °F 59.0 °F 89% 29.37 in 7.0 mi WSW 12.7 mph 19.6 mph 0.25 in Rain Rain
8:15 PM 61.9 °F 58.1 °F 87% 29.37 in 3.0 mi WSW 13.8 mph 21.9 mph 0.11 in Rain Rain
8:35 PM 60.8 °F 56.7 °F 86% 29.33 in 7.0 mi West 8.1 mph - 0.24 in Rain Rain
8:55 PM 60.6 °F 57.2 °F 88% 29.32 in 3.0 mi SSW 10.4 mph - 0.37 in Rain Heavy Rain
9:15 PM 61.7 °F 58.3 °F 89% 29.31 in 2.0 mi SW 12.7 mph 18.4 mph 0.11 in Rain Heavy Rain
9:35 PM 61.5 °F 58.3 °F 89% 29.37 in 2.0 mi WSW 27.6 mph 38.0 mph 0.25 in Rain Heavy Rain
9:55 PM 58.3 °F 54.5 °F 87% 29.34 in 10.0 mi West 12.7 mph 25.3 mph 0.41 in Rain Rain
10:15 PM 59.0 °F 54.7 °F 86% 29.34 in 10.0 mi West 15.0 mph 25.3 mph 0.11 in Rain Light Rain
10:35 PM 59.0 °F 54.5 °F 85% 29.36 in 10.0 mi West 15.0 mph 23.0 mph 0.25 in   Light Drizzle
10:55 PM 57.4 °F 52.9 °F 85% 29.39 in 10.0 mi West 10.4 mph 19.6 mph 0.38 in Rain Light Rain
11:15 PM 56.3 °F 51.8 °F 85% 29.43 in 10.0 mi West 16.1 mph 26.5 mph 0.09 in Rain Rain
11:35 PM 54.5 °F 50.0 °F 85% 29.42 in 10.0 mi West 11.5 mph 19.6 mph 0.19 in Rain Light Rain
11:55 PM 53.8 °F 49.8 °F 86% 29.44 in 10.0 mi West 10.4 mph - 0.28 in Rain Light Rain